Main page
METAR-TAF:

METAR-TAF

Airports :

Abadeh Airport

Abadeh, Iran

latitude: 31-11N, longitude: 052-40E, elevation: 2004 m

Current weather observation

The report was made 1 hour and 12 minutes ago, at 08:00 UTC
Wind 10 kt from the North
Temperature 11°C
Humidity 32%
Pressure 1022 hPa
Visibility 10 km or more
Few clouds at a height of 4000 ft

METAR: OISA 240800Z 36010KT 9999 FEW040 11/M05 Q1021 A3018

Time: 13:42 (09:12 UTC)


TAF: missing

Weather observations and forecasts of more than 4000 airports (METAR and TAF reports).

The available stations are represented by yellow and red dots on the map.

Hover mouse over dot to see the name of the station.

Then click to see weather observations and forecasts.

To change the map : click on the green buttons with a black cross to zoom in, on the green button with a dash to zoom out, or on the green arrows for adjacent maps.


METAR-TAF: